Calicut International Airport

Jump to: basic info | weather | frequencies | runways | comments

Related pages: nearby airports | nearby navaids | notams | map

Basic information (top)

Codes: CCJ VOCL
Location: lon 11.136800, lat 75.955299, elev 342 ft / 104 m msl
Status: large_airport
Scheduled airline service: yes
Links: Wikipedia Mobile

Weather (top)

Current conditions (rec'd 2014/04/25 03:00Z):

VOCL 250300Z 00000KT 6000 FEW015 SCT018 30/25 Q1010 NOSIG

Airport forecast (rec'd 2014/04/23 18:00Z):

TAF VOCL 231500Z 2318/2424 00000KT 5000 HZ FEW015 SCT090 
      TEMPO 2318/2321 3000 TSRA/RA SCT008 FEW025CB BKN080 
      BECMG 2404/2405 27005KT 7000 
      TEMPO 2412/2415 3000 TSRA/RA SCT008 FEW025CB BKN080 
      BECMG 2416/2417 33005KT 6000

Frequencies (top)

Verify before use: may be inaccurate or out of date.

ATIS: 127 MHz (ATIS)
TWR: 122.95 MHz (TWR)

Runways (top)

10/28: 9,383 x 150 ft (2,860 x 46 m) — paved — lighted

Latest comments (top)

Moideenkutty oorakam ( CCJ ): Calicut int airport ( Terminal,1 - ... [read]

Info: Calicut International Airport ... [read]

More... (top)

See also NOTAMs and nearby airports and navaids, or visit the Calicut International Airport page at the main OurAirports website..